ECMWFFLT2_sfc_thetae_132.txt.gz
Theta_e
299 300 308 307 319 304 304 307 302 303 308 303 299 302 301 304 300 299 305 305 307 310 313 319 324 324 324 326 325 324 324 325 327 329 331 332 331 328 328 330 331 333 334 336 338 339 339 340 340 341 342 343 344 345 344 345 345 346 345 347 347 348 348
300 301 304 313 302 305 303 300 305 302 303 301 296 293 290 290 292 291 302 301 300 301 299 319 322 323 323 323 325 325 325 325 325 327 330 332 332 330 329 330 332 333 335 336 338 339 340 340 341 341 343 344 345 345 345 344 345 345 345 346 347 347 347
298 298 301 300 301 299 309 308 310 298 295 296 293 297 288 289 288 287 293 298 299 301 306 318 319 320 322 323 323 325 324 325 325 327 328 331 333 332 329 329 331 332 334 336 338 339 340 341 343 343 344 345 345 345 346 345 345 346 346 346 347 348 348
298 296 295 294 291 296 297 299 297 297 294 290 292 294 294 293 287 289 287 293 297 312 314 319 319 322 323 324 322 323 325 326 326 326 327 329 331 331 330 330 330 332 334 336 338 339 340 341 342 343 344 346 345 346 347 346 346 347 347 347 348 347 348
296 292 295 293 294 294 291 292 292 295 294 295 294 294 292 291 288 287 286 288 298 312 321 321 322 324 325 324 323 323 326 327 328 328 328 329 331 331 331 331 331 332 333 335 338 340 341 342 344 345 345 346 346 346 346 347 346 346 346 347 347 348 349
292 295 297 297 294 295 294 291 291 290 289 291 289 287 289 294 291 285 287 287 296 315 323 323 324 326 326 327 324 324 326 329 331 331 331 331 332 332 332 332 332 333 334 336 338 340 341 341 344 344 345 347 347 347 347 347 347 347 347 347 347 348 349
296 298 299 300 300 297 295 301 304 296 290 289 284 283 287 291 295 297 292 294 302 319 323 325 327 328 328 328 328 326 327 329 330 332 333 335 334 333 333 333 334 335 336 336 337 338 339 340 342 344 345 346 347 348 348 348 347 347 348 348 349 349 349
296 297 298 299 301 300 300 298 305 305 303 291 290 287 287 289 293 295 294 293 299 318 324 325 327 329 330 330 329 328 328 329 330 331 334 334 334 335 336 337 337 338 339 339 338 337 338 339 341 343 344 345 347 348 348 349 348 348 349 350 349 349 349
289 293 297 295 298 298 295 296 304 307 306 302 293 292 292 291 291 294 290 289 299 317 323 325 326 328 328 328 329 329 327 329 330 330 332 334 334 333 334 335 336 338 338 338 338 339 338 339 341 343 344 345 346 347 348 349 349 349 349 351 350 350 350
284 285 283 287 290 293 296 301 309 310 309 303 294 293 291 287 298 300 296 298 309 319 321 322 324 326 327 329 329 330 330 330 330 331 332 333 333 333 333 335 337 336 337 338 338 338 339 340 340 341 342 344 346 348 349 350 350 350 351 352 351 350 350
286 289 292 296 299 299 301 305 307 308 310 307 296 289 288 287 299 303 306 309 310 314 317 319 321 324 325 326 327 327 329 330 331 332 332 332 332 333 333 335 335 336 337 338 339 339 339 340 341 341 343 344 346 347 349 351 352 352 352 352 352 351 351
296 297 296 304 307 303 303 304 305 309 309 308 303 293 293 296 300 295 308 313 311 312 316 318 320 322 325 327 326 327 328 329 329 329 331 333 332 333 333 333 334 335 336 338 338 339 339 340 341 342 343 342 345 346 348 349 351 352 352 353 352 352 352
301 302 303 306 306 305 305 305 306 307 309 310 306 305 303 301 293 297 310 314 311 313 317 320 322 323 326 326 326 327 329 330 329 329 329 330 330 331 332 332 333 334 334 336 337 338 339 339 339 339 340 341 344 346 348 349 350 351 352 352 352 352 352
301 301 305 306 305 304 304 303 305 307 309 311 312 311 312 312 311 313 313 313 312 315 317 321 324 328 328 328 330 329 328 327 328 327 327 329 330 332 332 333 334 334 335 336 337 337 338 339 339 340 341 342 343 345 346 348 349 350 350 351 351 351 351
300 302 306 304 302 303 302 302 303 306 309 311 311 312 313 315 313 314 313 312 311 317 320 322 328 329 328 327 325 326 327 328 328 327 327 328 329 330 332 333 334 335 336 337 337 338 338 339 339 340 341 342 344 345 347 348 349 349 349 348 346 344 344
295 299 303 301 299 300 300 300 301 302 306 306 309 309 312 309 309 311 311 309 309 317 321 325 325 323 322 321 321 323 325 327 327 327 328 329 329 329 330 333 333 334 335 335 336 338 339 340 341 341 341 342 344 344 346 347 348 349 346 343 341 343 343
290 297 301 299 298 293 291 296 299 301 306 309 312 313 315 313 311 304 303 308 316 318 322 320 319 319 319 318 319 319 322 324 325 324 325 326 329 331 331 332 333 333 334 334 335 337 338 339 339 341 343 342 342 344 345 347 348 345 343 342 342 342 343
287 295 297 298 293 287 286 299 304 303 306 308 308 309 312 316 315 311 315 315 318 319 320 317 315 315 316 318 319 320 320 322 323 323 323 325 326 329 332 333 333 333 334 334 333 334 335 338 339 341 342 343 343 345 347 347 345 343 343 342 341 342 343
289 292 295 291 287 288 301 310 313 314 313 313 312 313 314 316 318 317 315 316 316 317 318 317 316 317 317 317 317 318 319 321 321 321 322 323 324 325 327 328 329 329 330 330 330 330 332 334 335 337 339 340 341 342 343 344 344 342 342 341 341 342 341
288 288 287 283 284 296 304 307 313 315 312 310 307 307 312 314 316 317 314 315 316 317 317 318 319 317 317 317 316 316 318 319 319 320 321 322 323 323 324 325 325 327 328 328 329 328 331 330 331 332 333 335 336 338 341 340 339 340 339 339 339 339 338
286 286 285 288 295 296 302 302 306 304 301 301 301 296 301 310 315 317 315 315 316 316 317 317 317 317 317 315 313 315 317 318 319 320 320 322 322 323 323 324 324 326 327 327 328 328 327 327 327 328 330 331 331 330 334 335 335 335 336 335 336 336 336
289 287 285 287 287 286 293 300 305 308 308 308 307 303 299 305 314 318 316 314 315 316 315 315 314 311 307 307 309 314 317 317 318 319 320 320 321 321 322 324 324 324 325 325 327 326 325 325 326 328 329 328 327 326 330 332 333 333 333 333 334 335 335
288 287 285 284 284 287 296 300 303 307 308 310 309 299 293 300 311 317 316 315 316 315 314 312 312 304 302 304 308 314 318 315 317 317 318 319 319 320 320 321 322 323 323 324 324 324 324 323 325 326 327 327 325 324 324 324 325 326 329 333 334 334 335
289 284 282 286 287 292 299 300 303 307 308 307 300 290 290 301 311 316 316 315 315 314 313 311 308 304 301 303 308 314 316 314 315 315 315 316 317 318 319 319 319 319 320 319 319 319 319 321 324 324 324 324 325 323 324 324 323 323 324 325 328 332 334
292 293 286 287 291 299 303 303 304 306 307 299 289 285 297 306 312 316 317 316 315 314 313 313 310 309 307 308 312 314 313 313 313 314 315 315 317 317 318 318 320 316 315 315 315 316 317 320 322 323 323 322 322 323 323 322 322 323 324 326 327 329 331
289 284 286 288 288 295 301 303 306 308 302 289 288 295 300 311 315 318 319 316 316 316 316 312 310 310 312 315 312 312 311 311 311 312 312 313 314 315 319 321 319 313 313 312 312 313 314 316 320 322 322 322 322 322 321 321 323 326 326 326 327 327 328
289 284 285 285 283 297 305 306 304 306 296 294 296 304 313 316 317 318 316 316 315 315 312 313 313 313 312 312 311 311 311 311 310 310 311 311 311 312 313 313 316 313 310 310 310 310 311 313 315 319 323 322 320 319 317 320 324 326 324 323 325 326 327
285 285 285 285 290 297 302 303 297 300 303 305 306 311 312 315 316 314 313 313 315 315 314 313 313 312 311 311 311 311 311 311 311 311 311 311 312 312 313 314 314 314 309 309 309 309 310 311 311 313 318 320 320 318 315 319 324 325 322 322 323 324 326
290 288 288 293 296 300 304 304 303 305 311 311 313 315 314 315 314 314 313 313 315 316 315 314 312 311 312 311 311 311 310 310 310 310 310 310 311 311 311 313 314 311 308 308 308 309 310 311 311 312 313 317 319 316 316 322 324 324 323 324 322 320 320
298 299 299 303 305 307 309 310 310 312 314 315 316 318 316 314 316 316 314 314 315 315 315 313 312 312 311 311 310 310 310 310 311 312 310 310 311 311 311 310 312 309 308 308 308 308 309 311 311 315 313 314 315 315 319 321 323 324 325 325 323 321 320
293 293 299 303 306 305 309 310 311 312 312 312 314 315 315 316 317 317 317 316 316 315 315 314 312 311 312 310 310 310 309 309 309 310 309 309 310 311 312 315 313 309 308 308 309 309 309 310 312 313 313 315 315 317 320 320 322 325 326 325 326 324 323
292 294 299 302 303 304 305 305 310 311 311 313 314 314 316 317 318 318 318 318 316 316 314 314 313 312 312 311 310 309 309 309 308 308 309 309 310 310 310 313 311 307 307 308 310 311 311 310 310 312 312 313 313 315 317 319 321 325 326 324 321 321 322
298 300 301 302 305 307 306 307 309 309 312 315 314 315 317 318 318 317 318 319 318 317 316 316 314 313 312 312 311 310 309 308 308 308 308 309 310 309 309 312 313 306 311 312 311 313 311 309 309 310 311 312 313 314 316 317 320 323 324 324 321 319 320
295 298 301 303 301 299 303 306 309 310 311 314 313 314 316 317 317 317 317 318 320 319 318 317 316 314 313 312 311 310 310 309 309 308 309 310 310 311 311 312 311 314 315 309 311 313 311 310 311 312 311 311 313 314 316 316 318 322 324 321 319 319 320
296 300 303 307 303 303 307 309 309 309 311 314 314 314 314 314 316 317 317 316 316 318 318 318 318 316 315 313 312 311 310 310 309 309 310 311 311 311 313 311 311 310 311 316 315 315 312 315 314 313 314 312 312 314 314 314 316 318 319 321 319 319 323
300 303 306 306 302 304 306 308 309 310 311 314 313 311 313 315 316 317 318 318 316 314 316 318 319 318 317 315 313 312 312 312 311 311 310 311 312 313 314 311 311 313 314 315 315 315 311 314 312 312 313 312 312 314 314 313 314 315 317 320 318 319 320
302 302 307 306 304 306 308 309 309 310 312 314 312 311 312 314 314 317 316 315 316 317 316 315 316 318 317 315 314 314 314 314 314 312 315 318 317 314 313 313 313 315 315 315 313 311 310 312 315 315 312 313 312 313 314 314 315 317 316 317 316 316 320

ECMWFFLT2_sfc_thetae_135.txt.gz
Theta_e
310 311 321 322 320 305 313 313 305 310 316 313 309 310 310 311 307 305 314 312 316 322 320 323 329 329 330 331 332 329 329 331 333 333 334 335 335 334 333 334 335 339 341 343 343 344 344 345 346 347 349 351 352 353 353 354 355 356 356 358 357 358 359
305 304 314 323 314 321 314 306 311 309 315 311 309 303 307 305 299 303 310 307 310 310 308 324 326 325 327 329 330 330 328 330 330 332 335 335 336 335 334 336 340 342 342 342 343 344 344 345 346 347 350 351 353 353 353 353 354 355 355 356 356 357 358
305 307 320 314 308 311 314 310 317 307 303 303 308 309 298 299 298 301 305 308 309 311 313 319 320 321 324 327 329 331 327 327 329 332 335 337 337 336 335 336 340 341 343 343 345 345 344 346 348 348 349 350 351 352 352 352 353 353 354 354 355 357 357
304 312 317 307 308 307 305 313 311 307 311 307 303 306 307 305 299 298 300 304 304 314 316 319 320 323 325 326 328 330 331 329 329 331 333 336 336 336 335 335 337 339 342 344 346 346 346 347 348 349 350 350 350 351 353 352 352 354 354 354 355 355 355
303 304 304 309 309 303 303 308 307 302 302 305 304 304 304 302 300 301 298 298 308 316 322 322 323 326 327 328 328 331 332 332 331 331 332 335 336 336 335 335 339 340 341 342 344 346 348 349 350 350 350 351 351 351 352 352 352 351 352 353 353 355 355
302 301 304 303 302 303 304 305 304 302 301 298 296 297 301 301 301 297 298 297 310 320 325 325 326 329 329 330 330 331 331 332 333 334 333 336 337 339 338 336 336 339 342 343 343 346 349 350 350 350 350 352 352 353 352 354 353 353 352 352 353 355 356
302 303 305 306 305 309 316 315 310 307 301 301 299 293 298 301 302 306 305 302 308 320 325 326 328 330 330 331 332 332 334 334 335 337 336 337 339 339 339 339 339 341 344 344 345 347 349 349 350 350 352 352 351 353 354 355 354 354 352 352 355 357 356
305 305 305 307 307 309 309 315 317 315 310 307 301 300 302 301 305 302 302 300 307 321 327 328 330 332 332 332 331 331 333 334 336 339 341 341 340 340 341 345 344 345 344 346 349 348 348 350 351 351 352 353 353 353 355 355 354 354 354 355 356 358 357
300 302 305 304 307 311 307 310 315 316 315 313 311 304 303 301 303 305 301 295 310 320 325 328 330 331 330 330 331 332 331 333 334 337 338 341 341 341 341 342 343 345 345 345 348 349 351 351 352 354 353 355 354 355 356 354 355 355 356 357 357 357 356
291 291 293 296 302 305 309 313 314 316 315 304 302 298 302 295 307 303 302 307 314 321 324 325 327 328 329 330 331 332 333 332 334 335 338 340 341 342 342 342 343 343 345 348 349 349 350 351 352 353 355 355 356 357 357 357 354 356 358 359 357 356 356
298 301 305 307 307 311 309 310 313 314 315 309 306 302 301 297 308 307 311 314 313 316 320 322 325 327 326 328 329 329 330 333 335 336 336 337 338 339 339 340 341 341 342 341 346 348 347 348 351 353 355 355 356 356 355 356 357 357 358 357 358 357 356
308 307 308 311 309 310 310 311 312 315 314 313 307 301 299 313 307 303 313 317 313 314 318 322 323 326 327 328 328 329 331 331 331 332 334 335 336 337 338 337 337 338 339 340 344 347 348 350 351 352 354 356 356 355 353 354 358 358 359 359 360 359 358
309 310 312 313 312 311 312 313 314 313 315 314 311 309 310 313 307 304 314 317 314 316 319 323 324 325 326 326 327 330 331 330 330 331 332 334 335 337 337 336 336 335 336 338 342 344 346 347 349 350 351 352 352 349 347 351 358 360 361 361 360 359 359
309 311 311 311 310 310 311 312 314 315 315 314 315 315 317 316 315 317 316 316 316 319 321 323 325 328 327 327 329 330 330 329 330 331 331 332 333 334 335 337 338 337 337 339 340 340 342 344 346 347 347 347 347 347 348 350 354 360 360 358 359 360 360
306 307 307 308 309 310 308 310 312 314 315 314 314 314 315 316 315 316 316 315 314 321 325 326 326 325 325 325 324 325 327 329 329 329 330 331 332 333 335 336 336 337 337 338 338 339 340 341 343 344 345 346 347 347 347 349 351 357 357 356 359 360 359
302 305 305 306 305 307 307 308 309 311 312 312 313 312 313 313 312 314 315 313 313 320 324 325 324 323 321 320 322 324 325 326 326 326 327 329 331 332 333 334 334 334 334 334 334 335 337 339 341 343 345 346 347 347 349 350 353 356 357 356 357 358 360
300 304 304 303 303 302 299 305 308 309 313 314 315 316 317 316 316 314 312 314 319 321 325 322 320 320 319 319 319 321 324 326 326 325 325 326 329 330 330 331 331 332 332 331 332 332 333 334 335 339 342 344 346 348 349 351 354 353 355 357 357 355 353
299 301 303 304 299 292 295 311 313 312 312 314 313 314 316 317 319 315 319 319 321 322 321 319 317 317 317 318 320 321 321 324 324 324 325 326 328 329 329 329 328 329 329 329 329 330 331 333 334 337 339 340 343 347 349 351 352 353 353 353 353 353 350
299 302 302 297 291 294 309 316 318 317 317 317 315 315 317 318 319 319 319 318 318 319 320 319 318 318 319 320 319 320 322 324 324 323 324 324 326 326 326 325 326 327 328 328 329 328 329 331 333 334 334 336 338 343 347 350 354 354 352 349 345 344 343
301 300 298 290 292 305 309 313 317 319 317 316 316 314 316 318 319 320 318 317 318 319 319 319 321 321 321 321 320 320 322 323 325 325 323 324 325 325 325 325 325 326 326 327 327 327 330 331 332 333 333 334 336 338 344 348 350 346 342 341 340 340 339
297 299 298 297 305 305 308 310 313 315 311 308 308 305 312 320 320 320 318 318 318 319 319 320 321 323 324 320 318 320 320 321 323 324 324 325 325 326 326 326 325 327 327 327 328 329 329 329 330 330 333 335 334 333 335 340 343 342 341 339 338 339 339
301 298 296 298 297 295 304 313 311 315 314 313 314 312 309 319 321 322 320 318 318 318 319 320 320 322 319 314 315 318 321 321 323 325 326 325 325 324 325 326 325 325 326 326 326 327 328 328 329 330 332 332 332 330 330 331 334 336 337 336 336 337 337
299 299 295 295 293 297 308 314 310 313 316 314 314 308 303 317 321 322 321 319 320 320 320 320 321 318 313 313 316 317 318 320 323 323 323 325 325 323 323 323 323 324 325 325 325 326 326 326 328 330 331 332 330 328 328 329 330 329 330 334 335 335 335
301 299 296 294 301 300 307 310 310 314 315 314 310 296 298 315 322 322 322 320 320 322 322 321 321 317 314 314 318 319 319 319 321 324 324 325 325 324 324 323 323 324 325 325 324 324 324 326 328 328 328 328 330 329 329 329 327 327 327 329 334 337 337
300 298 298 299 301 308 310 310 312 314 313 310 300 293 305 316 322 323 323 322 322 323 321 322 320 321 320 322 321 322 322 322 322 322 323 323 324 324 323 322 324 322 322 322 321 321 323 326 327 329 327 326 327 328 329 328 326 327 329 331 334 336 338
299 300 297 297 302 308 311 313 312 315 309 299 298 309 313 320 322 324 324 323 324 323 322 323 321 319 320 321 321 321 322 321 321 322 323 323 322 322 324 324 323 321 321 321 321 321 322 323 325 326 327 327 326 327 326 326 327 329 330 332 334 336 337
300 300 297 294 289 305 312 314 312 312 306 307 315 319 321 324 325 324 324 324 324 324 322 322 320 319 319 319 319 320 321 321 321 321 322 323 321 321 321 321 321 320 320 319 319 320 321 322 323 326 326 326 325 325 324 326 328 329 329 330 330 330 330
296 297 295 293 303 311 313 314 308 313 314 316 320 326 321 325 326 325 325 325 325 325 323 320 319 318 318 319 319 319 319 319 320 321 321 322 321 321 320 319 319 320 320 320 319 320 321 323 324 325 328 326 326 325 325 329 330 329 328 326 327 325 325
303 301 304 310 311 312 314 314 314 317 320 321 324 328 326 324 325 327 326 325 325 325 323 320 319 318 319 319 319 319 318 319 318 318 319 320 320 319 319 320 321 320 319 318 317 317 319 322 325 326 327 327 326 325 328 332 331 330 329 328 325 323 322
308 310 310 312 314 316 317 315 317 320 323 325 326 327 325 327 326 326 326 325 324 324 323 319 319 319 319 319 319 319 318 318 318 320 319 319 319 318 319 320 319 319 319 319 318 315 315 318 321 325 325 325 325 327 330 332 332 333 332 330 328 327 324
305 299 312 314 315 315 317 319 320 322 324 326 327 328 328 327 326 325 326 325 324 323 323 321 320 320 320 320 320 321 320 320 319 317 318 318 319 319 318 319 318 316 313 312 314 314 316 318 320 320 323 323 325 328 330 329 331 334 332 330 330 329 328
306 307 312 312 313 315 316 319 322 323 325 326 327 329 328 327 326 326 325 324 322 323 321 321 320 319 319 319 318 318 319 319 318 320 319 319 319 320 321 318 318 315 314 313 313 314 316 318 321 322 322 323 324 326 327 329 332 333 332 330 326 325 324
307 310 311 312 315 317 317 317 319 325 327 327 326 326 325 325 324 324 324 324 322 322 322 322 320 318 319 319 318 316 317 317 317 319 320 321 321 320 318 318 319 318 318 317 319 317 317 319 321 322 323 324 325 326 326 328 333 331 329 328 326 323 323
304 306 310 313 308 308 315 317 319 323 325 328 326 325 324 324 324 324 323 323 323 323 323 322 320 319 320 320 320 316 317 317 319 320 321 321 320 320 321 321 321 321 321 322 321 320 321 323 323 323 323 324 326 325 327 329 330 330 331 329 327 325 326
303 313 316 319 321 319 319 318 320 324 325 327 326 325 324 325 325 325 324 323 323 323 323 323 322 322 321 321 321 318 316 319 321 321 321 320 319 319 321 320 321 323 323 323 323 322 322 324 323 323 323 324 325 325 326 327 328 328 329 330 330 328 329
314 319 318 319 316 314 319 321 322 323 326 329 328 327 327 326 326 327 326 325 323 324 324 325 325 323 322 322 321 318 318 318 320 320 322 321 322 323 323 323 323 324 324 324 323 322 324 324 323 324 322 323 325 324 326 326 327 328 328 327 326 325 327
310 317 320 320 319 318 322 323 323 324 324 328 326 326 327 327 327 328 327 328 327 326 324 324 326 327 324 322 322 321 319 320 322 322 323 323 323 325 323 323 324 324 325 324 325 326 326 326 325 324 323 323 324 324 326 324 323 323 324 325 325 326 328

ECMWFFLT2_sfc_thetae_138.txt.gz
Theta_e
311 311 312 312 314 303 314 314 307 309 316 313 309 310 311 311 307 308 317 313 316 324 326 326 331 331 333 335 336 334 332 332 333 332 335 337 339 338 338 337 338 341 343 346 345 347 347 348 349 350 352 354 357 358 358 359 359 360 360 363 360 361 361
311 314 317 316 315 315 317 307 312 317 317 315 309 303 307 305 299 307 311 309 311 311 312 326 327 328 331 332 333 336 333 332 331 333 335 337 339 340 339 339 342 344 345 346 346 346 347 348 348 350 353 354 357 358 358 358 358 358 358 359 359 359 360
311 314 317 317 319 321 314 310 319 308 302 302 307 308 299 298 299 304 308 310 312 314 314 322 323 325 328 331 333 335 333 332 333 333 335 338 341 341 340 339 340 342 345 347 348 348 346 348 351 351 352 354 356 357 356 355 355 355 356 357 357 359 360
310 311 314 308 310 316 318 319 313 314 311 305 307 309 308 306 300 300 304 306 307 318 320 323 323 326 329 329 330 332 334 334 333 335 335 337 338 338 338 338 339 341 345 348 349 350 348 349 352 352 353 354 353 356 356 354 354 356 356 356 357 357 357
311 305 309 309 310 310 310 311 310 311 310 312 311 311 307 304 301 300 301 299 310 320 326 324 326 328 330 331 331 333 335 337 335 334 335 338 339 339 338 338 342 341 344 346 347 350 351 351 353 354 353 355 355 355 355 355 354 353 354 354 356 357 358
304 308 313 310 311 313 311 311 312 311 306 303 300 301 309 307 304 298 302 299 313 325 328 328 329 331 332 333 332 334 335 336 338 337 336 339 340 341 341 340 338 342 344 347 345 348 352 351 352 354 354 357 356 356 356 357 356 355 354 354 356 357 359
305 308 310 314 314 315 315 313 310 312 312 309 305 297 304 306 306 308 307 303 310 325 328 330 331 333 333 334 334 335 336 338 339 339 338 339 342 341 341 342 340 343 345 347 347 349 352 352 353 356 356 356 356 357 358 359 358 358 354 353 356 359 358
309 312 315 315 317 316 310 315 316 311 308 309 307 305 305 302 305 303 304 301 311 324 328 332 333 334 335 335 335 336 338 340 342 343 344 344 342 342 341 344 345 343 345 350 351 351 352 353 355 356 356 358 358 357 358 359 359 358 356 357 357 360 361
302 304 308 310 314 314 312 314 317 318 318 315 313 310 309 302 303 306 302 299 310 324 330 332 334 333 333 335 335 337 337 339 340 341 343 344 345 343 342 346 346 346 346 348 351 354 354 354 356 357 356 358 359 358 359 357 359 358 358 358 358 359 361
293 294 294 299 302 307 314 316 316 318 316 313 312 302 304 298 311 306 302 307 317 323 329 329 331 332 333 335 336 336 337 336 337 339 341 342 343 343 345 348 348 349 351 354 353 354 356 355 355 356 358 359 360 359 360 360 359 360 360 359 357 359 361
298 301 307 309 311 309 308 310 314 314 315 317 314 309 303 299 308 308 311 315 316 318 324 326 329 330 330 331 333 332 331 333 335 339 340 340 341 342 342 343 346 347 346 347 349 351 353 354 356 355 354 355 357 357 359 361 362 361 360 360 360 360 359
308 308 309 312 313 308 310 311 311 315 314 314 310 306 303 317 304 299 317 322 316 317 323 325 328 330 331 331 331 330 331 334 335 337 339 339 340 341 342 342 342 341 343 344 346 349 350 351 352 353 355 356 357 358 359 361 361 359 357 361 361 360 356
308 312 311 313 311 311 311 311 312 313 315 315 311 312 313 315 306 301 315 321 319 320 323 325 328 329 329 329 330 332 333 335 336 337 336 337 337 338 340 341 342 342 341 342 343 344 347 348 348 348 352 356 358 358 356 360 359 359 360 359 359 359 359
312 312 312 312 310 310 310 311 312 313 313 314 316 316 317 314 318 318 318 321 320 322 325 327 328 330 329 329 331 331 331 332 334 335 336 336 336 337 338 340 341 342 342 342 341 342 344 346 346 347 347 349 351 353 354 355 355 359 361 362 360 359 359
309 311 311 313 311 310 309 311 313 313 314 315 316 317 317 318 318 320 319 319 318 324 327 327 330 331 330 329 328 328 330 331 332 332 333 333 334 335 335 336 337 338 338 337 336 338 340 341 343 346 347 349 351 352 354 355 356 358 358 357 356 357 356
306 308 309 309 309 309 309 310 311 312 310 310 312 314 317 317 315 318 317 316 317 323 327 327 328 327 326 324 326 327 328 329 330 329 330 330 330 331 331 332 334 334 335 334 334 334 336 338 340 342 343 346 349 351 354 355 355 356 355 355 355 356 358
303 308 308 307 307 307 302 305 312 314 315 315 318 320 322 321 320 316 313 316 324 326 326 325 324 324 323 322 323 324 327 328 328 328 328 328 328 328 328 329 331 332 333 333 332 332 333 334 335 337 339 342 345 349 351 355 355 354 354 354 354 354 357
303 306 306 307 303 295 298 314 318 316 313 314 313 315 319 321 322 320 325 325 327 326 325 322 321 320 320 322 324 326 326 326 326 327 327 326 326 327 327 328 329 331 333 333 333 333 334 335 335 337 338 339 340 343 346 351 352 353 353 353 354 353 354
301 305 304 299 294 297 312 319 320 319 319 318 317 319 321 321 323 323 323 324 323 323 322 321 321 322 324 326 325 326 329 329 327 326 326 326 326 326 326 327 328 330 332 333 333 333 334 335 336 337 337 340 342 343 344 346 351 354 354 356 354 353 350
304 300 300 292 294 307 315 317 319 321 321 320 319 317 320 322 322 324 322 323 325 325 324 324 325 324 324 326 327 327 328 328 328 327 326 327 327 326 326 327 329 329 330 332 332 333 335 336 336 336 337 338 339 341 345 347 350 351 351 350 349 350 349
297 300 300 299 309 307 311 312 315 315 313 315 316 309 317 323 323 324 322 323 324 324 324 325 326 327 326 323 323 327 327 328 329 328 328 328 328 329 328 327 328 331 333 334 334 335 335 337 337 336 337 338 338 338 339 340 341 343 345 344 344 345 346
302 298 297 299 298 295 302 314 318 320 319 317 318 315 317 323 325 325 324 322 322 323 323 324 326 328 322 317 319 325 327 329 329 330 331 329 331 330 330 328 328 332 332 334 335 334 335 336 337 338 338 336 337 336 336 338 338 340 340 338 339 340 341
301 299 296 296 295 298 309 315 316 318 319 317 318 311 307 321 325 325 324 322 324 324 324 324 325 323 317 316 319 325 326 327 329 329 329 329 329 329 328 326 329 331 331 332 331 332 331 331 336 339 339 337 336 335 334 335 337 336 336 336 337 337 339
301 299 297 295 300 299 312 315 316 317 320 316 314 299 302 319 323 325 324 323 323 324 326 326 324 320 316 317 321 327 327 327 329 329 327 327 327 328 327 326 327 330 332 331 330 330 328 329 333 337 337 337 337 337 337 338 337 337 338 338 339 338 339
300 299 298 300 302 313 316 316 318 318 318 315 303 297 310 324 324 326 326 325 326 328 326 326 323 325 328 327 329 330 329 329 328 326 325 325 326 326 325 324 326 326 327 327 326 327 329 329 330 333 334 335 335 335 336 337 337 339 341 342 343 343 343
299 300 297 298 303 314 316 319 318 320 314 301 302 313 322 326 324 326 326 326 328 328 327 326 327 327 330 330 331 330 329 328 328 328 327 324 323 322 323 324 324 324 324 324 324 324 327 326 327 329 331 332 333 333 333 333 336 340 342 342 342 342 341
303 302 298 296 291 311 318 319 318 319 309 311 317 322 327 327 327 327 326 327 326 328 326 327 327 328 328 328 328 329 328 327 325 323 322 322 321 319 319 320 322 321 322 322 322 323 325 328 327 327 328 330 331 332 332 334 336 340 341 341 341 340 340
298 298 296 295 309 314 321 318 312 316 320 322 327 324 324 327 327 327 327 328 328 328 327 325 326 327 327 328 328 327 325 323 321 320 319 320 320 321 320 320 321 321 322 323 323 326 327 330 330 329 330 329 331 332 333 335 335 336 336 335 336 334 334
303 301 307 317 320 320 321 323 320 325 324 328 329 328 327 326 327 330 327 328 329 330 329 327 327 326 326 327 326 324 320 318 317 317 318 318 319 319 320 322 324 322 320 319 321 324 326 329 331 331 331 330 330 330 334 337 335 332 331 331 329 327 327
315 315 318 320 320 319 320 321 323 324 324 327 328 328 327 329 330 330 328 330 330 331 330 326 326 326 325 325 324 319 316 315 315 317 318 319 320 319 320 321 320 320 319 320 320 319 321 323 326 330 330 331 331 331 332 334 335 332 330 328 327 326 326
304 300 316 317 320 320 320 321 326 329 329 330 329 329 329 330 330 330 331 332 331 331 330 327 326 326 326 324 321 319 318 318 319 319 321 321 320 319 318 319 319 318 317 316 316 318 320 321 321 324 326 329 332 334 332 329 331 333 331 330 330 330 329
305 309 316 320 322 325 325 324 323 325 330 331 331 331 332 332 332 332 332 333 331 331 327 327 326 324 325 322 321 320 320 320 320 320 320 320 319 321 322 322 321 321 320 319 319 320 321 321 322 323 323 325 329 332 333 333 331 331 331 329 328 328 327
313 318 320 320 322 323 324 326 328 328 329 330 331 332 332 332 331 332 332 332 331 330 327 327 325 323 322 320 319 317 317 318 320 321 322 322 322 322 323 325 326 326 326 325 325 324 324 324 324 324 324 324 325 328 330 334 335 331 329 329 329 327 326
307 306 313 317 310 311 319 322 326 329 331 331 329 329 328 330 330 330 329 329 329 328 327 326 325 323 322 320 320 317 318 319 322 324 324 324 324 324 326 327 327 328 328 328 328 328 327 328 327 327 326 326 326 325 328 330 332 333 333 331 329 327 326
304 312 317 321 319 318 320 323 325 330 330 330 328 327 328 329 330 330 328 326 326 326 326 327 325 324 323 321 320 319 318 320 323 325 326 325 325 326 328 328 329 329 329 329 329 329 329 330 329 327 328 328 328 327 329 330 331 331 331 329 328 327 327
313 317 319 322 319 316 321 323 326 327 330 329 328 329 329 329 329 329 328 328 326 326 326 327 327 326 324 322 321 320 320 321 324 325 327 327 328 328 329 329 329 329 329 329 329 329 330 330 330 329 327 328 329 328 329 328 330 331 331 329 328 328 328
314 320 322 323 322 323 324 326 326 327 329 328 326 328 328 329 329 330 328 328 328 327 326 325 326 327 325 323 322 322 322 324 326 327 328 328 328 328 327 328 328 329 329 328 329 330 330 330 330 330 329 329 330 328 329 328 327 326 327 329 331 330 330

ECMWFFLT2_sfc_thetae_141.txt.gz
Theta_e
311 310 312 311 312 302 309 312 307 309 315 314 310 310 312 310 309 305 313 311 315 324 323 324 327 333 332 331 336 332 333 337 336 336 334 334 338 337 336 336 337 340 340 341 343 346 346 347 347 349 350 352 356 356 356 358 359 359 358 362 360 360 361
310 314 313 313 313 313 314 307 310 316 319 316 311 302 306 305 303 304 309 307 308 311 306 324 324 325 330 331 332 334 335 337 334 336 336 338 338 340 342 338 339 341 342 342 343 345 345 346 348 349 352 353 354 355 356 356 357 358 358 358 357 358 359
311 313 313 310 314 316 312 312 318 309 305 303 309 307 299 300 300 302 305 306 310 313 310 319 321 323 327 331 334 334 331 331 333 335 336 340 341 340 340 341 339 339 341 343 344 345 345 347 349 350 349 351 353 353 354 355 355 355 356 356 357 358 358
311 311 310 303 306 313 314 317 313 317 312 306 303 307 307 306 300 303 301 303 304 316 316 321 322 324 329 331 330 332 332 333 331 334 335 338 340 340 340 340 341 339 341 344 344 345 345 346 349 350 349 349 350 353 354 354 355 355 356 356 358 356 356
309 303 307 305 309 308 309 309 308 310 310 312 310 310 308 307 304 302 301 298 306 316 326 326 327 328 329 331 330 333 332 333 333 335 335 337 339 341 340 342 342 340 341 342 344 345 347 347 349 349 349 350 351 352 353 352 354 353 353 355 356 358 358
303 305 311 313 311 311 313 310 308 308 306 304 302 301 313 310 304 299 304 300 312 321 329 329 331 332 332 334 333 331 336 333 335 335 338 340 339 340 342 342 340 342 348 344 343 345 347 347 348 349 349 350 352 352 353 352 352 351 352 352 355 358 359
306 307 312 315 315 315 314 314 310 311 310 309 305 297 302 307 307 309 308 304 308 324 327 329 333 335 335 336 337 334 335 335 337 337 338 341 340 339 340 342 344 344 348 352 349 350 348 348 349 352 352 354 353 354 355 355 354 355 351 352 353 358 356
308 311 314 315 315 315 312 312 313 312 310 310 307 306 308 306 307 303 303 301 311 322 326 332 334 336 339 337 335 334 334 335 337 343 342 342 342 344 342 346 346 345 347 348 352 345 352 352 351 353 355 356 356 355 358 359 354 352 351 357 362 359 359
302 305 310 309 314 314 311 311 315 315 313 312 311 310 312 305 306 305 301 296 305 321 329 331 336 332 335 333 339 341 338 335 336 340 345 345 344 344 344 344 344 346 344 346 348 351 352 354 355 357 357 359 359 359 358 357 360 357 356 356 359 360 359
293 295 296 299 304 308 312 318 314 315 314 311 309 304 307 301 308 308 304 304 313 322 330 331 334 332 332 336 337 338 338 339 334 335 335 338 340 341 343 346 348 347 349 349 351 352 355 356 358 360 362 361 360 361 361 360 353 358 357 359 356 354 358
301 303 305 309 311 310 305 311 310 313 313 313 313 311 307 302 307 306 310 310 314 317 322 326 329 330 332 333 335 335 335 338 339 337 339 339 340 340 341 343 346 346 349 350 353 354 355 355 358 359 360 360 361 360 361 361 362 361 362 359 359 359 359
307 307 307 312 311 309 308 308 310 312 312 313 312 307 304 315 306 302 312 317 312 316 321 325 325 331 332 332 333 333 335 337 338 339 337 337 340 339 340 342 342 344 345 346 348 349 351 355 358 358 359 360 361 361 362 362 364 363 362 362 362 361 363
308 310 309 311 311 309 311 311 311 312 312 312 311 310 310 312 305 301 314 319 314 317 323 326 328 330 330 330 332 335 336 337 338 339 339 339 336 338 340 339 342 343 343 344 346 347 349 350 350 352 355 358 359 360 362 363 363 363 363 360 359 360 362
308 309 308 311 311 310 309 311 311 313 313 314 315 313 313 311 311 314 316 317 319 323 325 328 328 330 331 331 334 334 334 335 336 336 336 337 338 339 339 340 340 340 342 343 345 346 347 347 347 348 349 352 354 355 357 359 361 360 360 359 359 358 358
308 310 311 310 309 308 308 308 309 310 312 311 312 314 312 312 315 317 318 318 319 326 330 329 330 330 331 332 331 331 332 333 332 331 331 332 333 336 337 338 338 339 340 340 340 341 341 343 343 344 346 350 351 352 353 355 357 358 358 357 358 357 357
304 308 309 309 310 309 306 308 309 310 309 310 311 312 314 314 312 315 316 313 316 325 331 330 329 328 327 326 327 328 329 330 329 328 328 329 330 332 334 336 337 337 338 338 339 340 340 339 338 338 339 342 346 350 352 354 356 358 358 357 357 358 360
301 308 308 308 307 306 304 304 307 312 313 312 313 313 315 318 317 314 311 311 321 326 328 325 325 325 325 326 326 327 328 329 328 327 327 328 329 331 333 335 336 336 337 338 338 339 341 341 339 339 340 340 341 343 346 352 356 357 356 357 357 357 358
303 304 309 310 304 296 299 314 317 314 311 314 312 314 318 320 323 317 319 321 327 327 326 324 323 323 324 325 328 330 329 327 327 327 327 328 330 332 333 334 335 336 337 337 338 339 339 340 340 341 341 342 343 346 346 347 351 354 355 356 356 357 357
301 305 306 301 295 297 312 315 318 317 314 313 312 315 318 320 323 323 322 324 328 327 326 325 327 327 327 328 328 329 330 329 327 325 325 325 327 330 333 334 334 335 336 336 337 338 338 339 341 342 341 342 344 346 348 347 349 352 354 354 354 356 355
305 302 303 296 297 309 315 314 317 317 315 315 314 314 317 320 322 325 324 321 325 326 326 327 329 329 329 329 329 329 330 330 329 327 326 326 327 328 332 334 334 334 335 336 337 338 340 340 340 341 341 342 342 344 348 348 350 351 352 352 351 351 351
299 301 300 299 308 306 311 311 312 312 312 314 310 306 312 323 324 327 327 326 326 326 326 327 327 329 328 326 326 332 331 331 331 330 329 328 327 328 332 333 333 335 336 336 338 340 341 341 340 341 342 342 341 341 341 343 344 344 344 343 344 345 347
304 300 298 299 300 297 306 312 317 317 317 316 317 316 312 320 324 329 328 327 326 326 327 327 328 329 324 319 320 327 330 332 332 332 332 330 330 330 332 333 333 335 335 335 336 338 340 339 340 341 342 342 340 339 339 340 341 340 341 341 342 342 343
303 300 297 296 296 299 308 312 314 317 318 316 319 310 306 319 324 328 328 326 326 325 325 326 328 325 320 319 322 327 330 330 331 330 330 330 328 329 331 332 331 332 333 333 334 337 338 338 341 341 342 342 341 340 340 340 340 340 339 340 341 343 345
302 301 298 297 301 301 311 313 313 316 317 316 313 300 301 319 324 327 328 326 326 327 327 329 328 324 318 319 323 328 329 329 329 329 329 329 328 327 329 330 332 332 334 333 333 334 334 336 338 339 339 339 340 340 340 341 340 339 339 340 341 343 343
301 300 299 301 303 312 315 314 316 316 317 313 303 297 310 322 325 326 329 328 328 329 328 327 323 327 327 328 330 331 331 330 329 329 330 329 327 325 326 328 332 329 328 328 329 331 334 337 337 337 337 336 336 339 340 340 339 340 343 344 345 346 345
300 301 299 299 304 313 315 315 315 318 313 301 299 313 323 323 323 327 326 328 329 327 331 330 328 329 331 331 331 330 329 328 327 328 328 325 323 325 327 329 328 326 325 327 327 328 330 334 335 335 335 334 335 335 335 335 338 341 342 343 343 343 343
303 303 300 296 292 312 318 317 314 318 307 309 317 323 323 324 323 325 324 328 328 328 330 330 332 331 330 330 329 329 329 329 327 326 324 322 321 321 323 324 325 325 326 326 325 326 326 329 331 333 333 333 333 333 332 334 336 338 339 340 340 341 341
299 299 297 296 311 314 319 315 309 317 320 321 323 322 324 322 323 322 327 328 329 328 327 325 328 330 329 329 329 328 328 325 324 324 323 322 322 322 321 322 323 325 326 326 327 328 327 329 330 332 333 332 332 332 331 334 334 334 333 332 334 333 334
304 302 306 312 318 318 318 319 322 325 326 326 324 325 323 324 326 327 326 327 329 331 328 327 327 328 330 329 328 326 324 320 319 318 319 321 323 323 322 322 324 324 322 322 324 327 329 331 332 333 332 331 331 330 331 333 332 331 331 331 329 327 326
313 315 316 321 318 317 318 318 325 324 325 325 326 324 323 326 326 326 326 326 329 331 330 327 327 328 329 327 326 324 321 319 319 320 319 320 321 320 321 322 323 324 324 325 324 323 326 328 330 332 331 331 331 332 332 332 333 332 333 332 329 327 325
306 300 316 313 316 319 317 320 324 328 327 328 329 327 329 330 329 327 328 328 329 332 328 326 328 329 329 327 325 322 321 319 319 317 318 320 321 322 321 322 322 321 321 321 322 323 324 326 328 330 332 332 332 332 333 330 331 334 333 331 330 329 327
306 308 315 316 320 322 320 321 323 322 326 327 329 332 332 331 331 331 328 328 329 330 329 328 326 326 326 324 319 318 318 319 321 322 322 322 322 323 323 323 324 323 323 322 322 323 324 326 327 327 329 332 334 334 331 329 331 333 332 331 328 327 326
310 314 318 319 320 320 320 321 323 326 327 329 329 330 331 330 330 330 332 328 328 328 329 329 326 325 324 321 319 318 320 321 322 322 322 324 325 326 327 327 328 327 327 326 326 324 324 324 325 326 327 326 328 331 333 335 336 333 332 331 330 327 326
305 306 312 315 308 309 315 318 323 328 331 330 330 330 330 330 329 329 328 330 330 330 330 330 329 327 324 322 322 320 320 320 321 323 324 326 327 328 329 330 330 330 330 330 329 328 328 329 328 328 327 328 330 329 332 335 336 335 334 331 329 325 326
304 310 315 319 317 316 320 321 324 330 331 330 329 329 329 330 330 330 329 329 330 330 329 331 329 327 324 323 322 321 321 323 323 324 325 326 327 328 330 330 331 331 332 332 332 331 331 331 330 330 330 329 330 330 332 334 334 335 334 332 330 328 325
312 316 319 319 317 314 321 324 328 328 330 328 328 329 330 330 330 330 330 330 329 329 329 330 329 326 323 323 322 323 324 324 325 326 327 327 329 329 329 330 331 331 331 332 332 332 332 332 332 332 330 331 331 330 330 330 332 334 334 332 329 328 329
313 317 319 322 320 320 326 328 328 328 328 328 326 328 328 329 329 330 329 329 329 328 327 327 328 327 324 323 324 324 324 325 326 327 328 329 328 327 327 328 330 330 331 331 332 332 332 331 331 330 331 330 332 331 332 331 330 328 329 331 331 330 331

ECMWFFLT2_sfc_thetae_144.txt.gz
Theta_e
310 310 311 310 310 298 307 309 304 308 313 310 306 308 311 309 307 304 311 310 316 323 326 328 327 330 331 332 332 332 335 335 332 331 333 334 335 333 333 333 334 339 338 341 342 344 344 344 345 346 352 350 354 355 354 356 358 357 357 361 359 359 361
311 313 312 312 311 310 306 302 308 314 316 313 308 301 305 304 300 301 310 307 308 309 307 324 323 325 330 330 331 334 333 333 332 331 333 334 334 338 337 335 339 341 341 340 342 343 345 345 346 346 353 350 357 353 354 354 356 356 355 357 357 357 359
310 314 311 308 312 313 307 305 317 306 302 301 307 306 298 298 298 302 306 307 308 309 310 317 318 320 324 327 329 333 334 332 333 333 332 334 336 342 341 342 338 339 341 342 343 344 345 347 349 347 349 349 352 351 353 354 355 355 355 355 356 358 358
311 311 309 300 305 310 312 313 312 314 309 306 303 305 305 304 300 298 301 304 303 315 315 320 319 322 324 327 329 331 335 334 333 334 334 333 336 338 340 341 343 338 341 344 344 345 344 345 347 347 347 349 350 353 353 354 354 355 355 354 355 354 355
310 303 307 304 306 305 305 306 306 309 309 313 311 308 305 303 301 301 300 298 305 316 324 324 323 324 325 328 329 331 331 334 333 335 335 338 342 339 339 338 350 340 341 339 340 343 347 349 348 350 349 350 349 351 352 352 352 352 353 353 352 354 354
304 305 311 309 308 309 307 307 306 307 304 304 300 299 309 306 305 297 300 299 307 321 329 330 326 325 328 330 330 330 330 335 334 332 335 338 338 341 336 339 342 351 352 345 345 343 348 349 350 350 352 351 349 350 351 353 355 354 350 352 355 358 357
304 307 311 314 314 313 311 310 307 310 309 307 303 295 302 306 307 310 306 304 310 324 328 328 327 329 329 330 331 331 333 334 336 335 337 339 341 340 341 343 345 351 350 352 351 357 356 358 361 358 351 354 350 355 356 360 357 356 352 352 357 358 355
308 311 312 312 313 313 310 311 312 311 306 307 306 305 306 303 303 302 304 302 307 323 330 330 328 328 330 333 331 330 331 333 337 338 340 341 341 339 341 347 347 348 351 352 357 353 355 358 359 353 352 349 352 354 356 355 356 353 352 359 360 359 358
302 304 307 308 311 311 308 309 311 312 311 312 311 310 310 303 304 307 301 295 305 322 327 328 330 328 329 330 332 332 330 334 336 337 339 341 343 346 343 343 343 344 346 348 352 352 348 349 354 354 352 352 353 355 358 359 356 350 354 357 361 359 359
294 292 294 297 302 306 309 312 310 311 311 312 311 304 307 299 306 307 302 304 311 324 326 324 329 328 325 327 329 332 332 330 333 337 340 341 343 343 344 346 348 350 349 349 348 348 350 352 352 351 351 353 354 357 364 358 353 357 357 358 356 356 357
299 303 306 309 309 307 304 307 309 310 312 313 311 308 306 301 305 304 309 309 311 319 324 327 325 327 324 323 326 329 329 332 335 338 338 340 341 341 343 344 347 350 349 347 345 346 349 350 350 353 349 353 351 354 354 357 360 358 358 362 361 357 356
306 308 307 309 309 306 307 308 309 311 310 311 309 305 304 313 306 299 309 316 313 316 321 324 327 327 328 326 326 327 327 331 334 336 338 339 339 341 342 341 342 344 345 343 343 347 344 345 350 356 355 353 352 354 360 364 364 361 359 359 361 362 363
307 309 309 310 310 310 309 309 310 310 311 311 308 308 311 312 304 301 312 317 314 317 321 325 328 329 327 326 325 325 329 331 334 335 336 337 337 338 339 341 342 342 343 343 343 344 346 350 350 352 354 356 355 356 359 363 363 364 363 361 361 362 363
308 310 309 310 310 309 309 308 309 311 311 311 312 311 312 311 311 317 316 317 318 320 325 328 330 332 331 327 328 328 327 328 333 333 333 334 335 336 338 339 340 341 342 343 343 344 343 345 348 349 351 352 352 350 353 354 357 360 364 362 361 358 358
306 310 310 309 309 308 307 308 308 309 310 310 312 313 312 312 313 317 317 315 317 325 330 330 332 333 333 331 329 327 325 326 329 332 331 333 335 336 338 337 338 339 340 340 341 340 341 342 343 345 345 348 353 354 354 356 356 356 359 357 358 357 356
303 308 308 308 310 309 308 307 308 309 310 308 311 310 313 313 310 316 316 315 317 324 328 330 330 330 329 328 328 329 329 328 327 328 331 332 333 334 335 336 336 337 338 338 338 339 340 340 341 342 343 346 349 349 350 353 355 357 357 358 357 357 356
300 307 307 306 307 307 303 304 308 310 311 312 314 313 315 315 316 313 311 312 321 325 329 326 326 327 327 327 327 327 328 330 330 330 330 331 332 333 334 334 335 336 336 337 338 338 339 340 341 342 343 342 343 344 345 347 350 354 356 358 356 356 355
301 304 306 307 303 296 299 312 314 312 310 311 309 308 312 317 319 316 317 322 324 326 327 325 324 326 326 327 329 330 329 328 329 330 331 331 332 333 333 334 335 336 336 337 337 338 339 340 341 343 344 344 345 348 349 349 349 351 354 356 355 352 352
300 303 305 300 295 297 310 317 316 316 315 314 311 311 316 319 320 320 321 322 320 323 327 328 327 327 328 330 329 329 330 331 330 330 331 332 332 332 332 333 334 335 337 337 338 338 339 340 342 343 343 345 346 347 350 350 350 351 354 354 351 352 351
304 301 302 292 295 307 312 315 317 317 315 314 312 310 316 319 321 324 324 323 323 326 327 328 329 328 329 329 330 330 330 330 328 328 329 331 332 331 332 332 334 335 335 337 338 339 341 341 341 342 342 345 346 347 350 349 349 350 349 349 349 350 350
297 300 299 298 308 307 309 310 312 312 309 309 308 303 309 319 324 324 322 323 326 326 327 328 327 329 328 326 328 331 330 330 330 329 329 331 332 332 333 334 333 336 339 339 340 340 340 341 341 341 342 343 343 343 344 344 345 345 345 344 346 347 348
305 299 298 298 300 298 304 311 316 318 316 316 316 313 314 320 322 324 322 322 323 326 326 327 328 327 323 319 321 329 329 330 329 330 331 331 333 333 333 335 334 335 338 339 339 340 340 341 342 343 343 344 344 343 342 344 343 343 343 343 345 345 345
301 300 297 296 295 302 310 313 315 316 317 316 318 310 304 317 322 322 321 321 322 323 324 324 325 321 315 316 321 327 329 330 330 328 329 330 331 332 331 331 332 332 336 337 338 339 339 339 341 344 344 344 342 341 340 340 340 339 339 341 342 342 344
300 299 296 296 301 305 311 313 312 315 317 316 313 299 300 315 321 322 321 321 320 321 323 323 320 317 314 318 322 328 328 328 328 327 326 327 330 328 329 330 332 333 337 338 336 335 335 336 338 340 341 341 341 340 341 341 340 340 340 341 343 345 346
301 300 298 300 304 312 314 312 314 315 317 313 301 296 309 321 323 324 322 322 322 323 323 323 319 320 323 328 329 331 330 330 329 327 327 327 327 327 328 329 333 330 331 333 332 334 336 337 337 338 338 337 338 339 340 339 339 341 344 345 345 346 346
298 300 298 299 305 313 316 316 314 317 312 300 300 313 324 324 324 323 325 321 322 324 323 323 324 326 328 328 330 329 329 328 329 328 326 326 326 327 329 330 330 328 328 329 333 334 334 334 335 336 336 336 336 336 336 335 338 343 344 344 345 346 344
302 302 298 295 291 311 317 316 315 318 308 310 318 322 323 324 324 324 322 322 321 322 322 325 328 327 326 327 327 325 325 324 323 322 323 324 323 323 324 326 327 326 326 326 328 329 330 332 334 334 333 333 333 333 331 332 333 335 337 340 344 344 344
298 299 297 295 307 314 317 315 311 317 319 322 324 322 319 322 323 325 328 326 326 327 327 327 328 328 326 326 326 325 325 323 321 321 322 323 326 325 325 326 327 327 326 326 327 328 330 331 332 332 332 331 331 330 330 333 331 332 334 334 335 333 335
304 303 307 312 320 316 319 320 321 322 323 326 325 324 322 321 324 328 326 327 328 329 327 327 328 326 327 326 325 324 323 322 320 319 320 320 322 321 322 323 327 327 326 326 326 328 330 331 332 333 332 330 329 329 331 336 336 333 331 332 333 330 329
313 313 315 318 316 316 319 321 321 322 324 324 323 324 322 325 326 328 325 328 328 328 329 326 327 328 326 325 325 322 322 320 320 322 322 322 322 322 322 323 323 323 324 326 325 324 326 327 328 333 330 330 331 331 333 336 334 334 332 332 331 329 325
304 299 315 313 313 315 315 318 321 324 324 325 323 325 328 328 327 328 326 328 328 328 330 328 328 329 331 329 326 325 323 321 321 319 320 320 320 321 321 323 325 324 324 324 326 327 327 329 330 329 329 329 332 336 337 333 333 337 335 333 333 330 328
306 306 313 315 317 319 318 319 320 320 324 325 326 330 332 331 331 329 328 329 328 328 327 327 328 327 326 321 319 319 320 321 322 324 323 322 320 323 325 324 324 323 323 324 324 325 326 327 328 329 330 331 332 332 330 330 331 335 336 335 325 326 323
309 313 314 317 319 319 318 319 321 323 325 326 327 329 330 330 329 328 327 327 327 327 327 328 328 326 323 319 319 317 316 317 319 322 324 326 326 327 325 325 327 327 324 323 324 323 324 326 327 328 328 328 330 332 334 335 338 334 333 330 328 324 324
304 306 309 313 308 308 313 315 318 325 328 329 328 329 328 328 329 328 324 325 328 327 327 326 325 324 321 319 320 318 319 320 322 323 324 325 325 327 328 328 328 328 329 329 327 326 327 329 328 328 328 330 332 331 334 336 337 336 336 335 329 324 324
304 311 312 321 318 316 316 319 321 328 329 329 327 329 327 327 330 329 326 324 324 326 327 327 326 324 321 321 322 322 321 321 323 324 326 326 326 326 327 327 328 329 329 329 328 328 329 331 330 330 330 328 330 330 333 334 334 336 336 335 334 326 328
312 314 313 318 317 314 316 319 326 328 330 329 327 328 329 330 330 328 328 327 327 331 328 327 328 324 323 322 323 321 321 322 323 325 327 327 328 329 330 330 330 330 330 331 331 331 331 331 330 331 329 330 333 330 331 331 333 334 334 335 333 328 327
313 317 317 319 320 319 321 327 327 329 328 327 325 327 330 329 329 329 328 329 329 331 328 327 328 327 324 323 323 322 322 322 324 325 329 330 328 328 328 330 331 331 331 331 332 332 331 331 330 329 329 329 331 331 333 331 331 331 331 330 326 328 332